Home > Weather > Ludwigsburg > Past weeks

Flag for Germany Weather for the Past 2 Weeks in Ludwigsburg, Baden-Württemberg, Germany

Now
46 °F

Broken clouds.


Feels Like: 40 °F
Forecast: 41 / 53 °F
Wind: 14 mph from West

Location: Stuttgart-Echterdingen

Current Time: Feb 7, 2016 at 4:04:17 PM

Latest Report: Feb 7, 2016 at 3:20 PM


Visibility: N/A

Pressure: 29.74 "Hg

Humidity: 71%

Dew point: 37 °F

Location of LudwigsburgLocation

Historic Weather in Ludwigsburg — Graph

°F

Ludwigsburg Temperature Yesterday

Maximum temperature yesterday: 57 °F (at 1:20 PM)
Minimum temperature yesterday: 32 °F (at 4:20 AM)
Average temperature yesterday: 43 °F

High & Low Weather Summary for the Past Weeks

 TemperatureHumidityPressure
High61 °F (Jan 26, 2:20 PM)100% (Jan 23, 9:50 PM)30.63 "Hg (Jan 23, 9:50 PM)
Low25 °F (Jan 24, 4:20 AM)44% (Feb 6, 1:20 PM)29.62 "Hg (Feb 7, 8:50 AM)
Average43 °F82%30.20 "Hg
* Reported Jan 23 3:20 PM — Feb 7 3:20 PM, Ludwigsburg, Weather by CustomWeather, © 2016

Note: Actual official high and low records may vary slightly from our data, if they occured in-between our weather recording intervals... More about our weather records

Advertising

Ludwigsburg Weather History for the Previous 24 Hours

 ConditionsComfort  
Time TempWeatherWind HumidityBarometerVisibility
3:20 PM
Sun, Feb 7
46 °FBroken clouds.14 mph71%29.74 "HgN/A
2:20 PM46 °FBroken clouds.3 mph76%29.71 "HgN/A
1:50 PM46 °FBroken clouds.2 mph71%29.68 "HgN/A
1:20 PM46 °FPartly sunny.2 mph71%29.68 "HgN/A
12:50 PM45 °FPartly sunny.1 mph76%29.65 "HgN/A
12:20 PM43 °FPassing clouds.3 mph76%29.65 "HgN/A
11:50 AM41 °FSunny.1 mph81%29.62 "Hg10 mi
11:20 AM39 °FSunny.1 mph87%29.62 "Hg10 mi
10:50 AM39 °FSunny.1 mph87%29.62 "Hg10 mi
10:20 AM37 °FSunny.3 mph93%29.62 "Hg10 mi
9:50 AM36 °FSunny.2 mph87%29.62 "Hg10 mi
9:20 AM36 °FSunny.1 mph87%29.62 "Hg10 mi
8:50 AM36 °FSunny.1 mph87%29.62 "Hg10 mi
8:20 AM34 °FSunny.5 mph100%29.65 "Hg10 mi
7:50 AM34 °FSunny.2 mph93%29.65 "Hg10 mi
7:20 AM34 °FClear.1 mph93%29.65 "Hg10 mi
6:50 AM34 °FClear.2 mph93%29.65 "Hg10 mi
6:20 AM34 °FClear.2 mph93%29.65 "Hg10 mi
5:50 AM34 °FClear.1 mph93%29.65 "Hg10 mi
5:20 AM34 °FClear.2 mph93%29.68 "Hg10 mi
4:50 AM34 °FClear.2 mph87%29.68 "Hg10 mi
4:20 AM36 °FClear.1 mph87%29.68 "Hg10 mi
3:50 AM37 °FClear.2 mph81%29.68 "Hg10 mi
3:20 AM39 °FClear.2 mph75%29.71 "Hg10 mi
2:20 AM41 °FClear.2 mph76%29.74 "Hg10 mi
1:50 AM39 °FClear.5 mph75%29.74 "Hg10 mi
1:20 AM41 °FPassing clouds.5 mph76%29.74 "HgN/A
12:50 AM36 °FClear.3 mph81%29.74 "Hg10 mi
12:20 AM37 °FClear.1 mph81%29.77 "Hg10 mi
11:50 PM
Sat, Feb 6
39 °FClear.1 mph81%29.77 "Hg10 mi
11:20 PM41 °FClear.2 mph76%29.77 "Hg10 mi
10:50 PM41 °FPassing clouds.3 mph76%29.77 "HgN/A
9:50 PM43 °FPassing clouds.3 mph76%29.80 "HgN/A
9:20 PM43 °FClear.3 mph76%29.80 "Hg10 mi
8:50 PM43 °FClear.2 mph71%29.83 "Hg10 mi
8:20 PM45 °FPassing clouds.6 mph76%29.83 "HgN/A
7:50 PM46 °FClear.2 mph71%29.86 "Hg10 mi
7:20 PM45 °FPassing clouds.5 mph76%29.86 "HgN/A
6:50 PM45 °FPassing clouds.3 mph76%29.86 "HgN/A
6:20 PM45 °FClear.1 mph76%29.86 "Hg10 mi
5:50 PM46 °FClear.2 mph76%29.89 "Hg10 mi
5:20 PM50 °FSunny.2 mph67%29.89 "Hg10 mi
4:50 PM52 °FPassing clouds.3 mph67%29.92 "HgN/A
4:20 PM54 °FSunny.6 mph63%29.92 "Hg10 mi
Weather by CustomWeather, © 2016

See weather overviewHow to use our weather pages